Fort Sill, OK

1:03 AM CDT on July 24, 2017 (GMT -0500)
Post Army Air Field

Weather History for KFSI - March, 2014

Change the Weather History Date:

Sunday, March 23, 2014

  Actual Average Record
Temperature  
Mean Temperature 41 °F -  
Max Temperature 50 °F 65 °F 84 °F (2017)
Min Temperature 32 °F 40 °F 23 °F (1952)
Degree Days  
Heating Degree Days 24    
Moisture  
Dew Point 19 °F    
Average Humidity 40    
Maximum Humidity 61    
Minimum Humidity 28    
Precipitation  
Precipitation 0.01 in - - ()
Sea Level Pressure  
Sea Level Pressure 30.34 in    
Wind  
Wind Speed 18 mph (NNE)    
Max Wind Speed 30 mph    
Max Gust Speed 38 mph    
Visibility 10 miles    
Events      
Averages and records for this station are not official NWS values.
T = Trace of Precipitation, MM = Missing Value Source: NWS Daily Summary

Daily Weather History Graph

Daily Weather History Graph

Search for Another Location

Airport or City:

Trip Planner

Search our weather history database for the weather conditions in past years. The results will help you decide how hot, cold, wet, or windy it might be!

Date:

Astronomy

Mar. 23, 2014 Rise Set
Actual Time 7:33 AM CDT 7:47 PM CDT
Civil Twilight 7:07 AM CDT 8:12 PM CDT
Nautical Twilight 6:38 AM CDT 8:42 PM CDT
Astronomical Twilight 6:08 AM CDT 9:12 PM CDT
Moon 1:54 AM CDT (3/23) 12:27 PM CDT (3/23)
Length of Visible Light 13h 05m
Length of Day
12h 14m
Waning Gibbous, 54% of the Moon is Illuminated
Mar 23
Waning Gibbous
Mar 23
Last Quarter
Mar 30
New
Apr 7
First Quarter
Apr 15
Full

Hourly Weather History & Observations

Time (CDT) Temp. Windchill Dew Point Humidity Pressure Visibility Wind Dir Wind Speed Gust Speed Precip Events Conditions
12:58 AM 50.4 °F - 27.0 °F 40% 30.22 in 10.0 mi NNE 23.0 mph 31.1 mph N/A   Overcast
1:58 AM 46.8 °F - 19.4 °F 34% 30.25 in 10.0 mi NNE 29.9 mph 38.0 mph N/A   Overcast
2:58 AM 41.4 °F 32.1 °F 14.9 °F 34% 30.30 in 10.0 mi NNE 20.7 mph 34.5 mph N/A   Mostly Cloudy
3:58 AM 37.8 °F 26.6 °F 12.7 °F 36% 30.31 in 10.0 mi NNE 24.2 mph 32.2 mph 0.01 in   Scattered Clouds
4:58 AM 36.0 °F 25.0 °F 11.8 °F 37% 30.33 in 10.0 mi NNE 20.7 mph - N/A   Mostly Cloudy
5:58 AM 33.8 °F 22.5 °F 13.1 °F 43% 30.37 in 10.0 mi NNE 19.6 mph 27.6 mph N/A   Clear
6:58 AM 32.9 °F 22.0 °F 14.9 °F 48% 30.38 in 10.0 mi NNE 17.3 mph 25.3 mph N/A   Clear
7:58 AM 32.4 °F 22.1 °F 15.6 °F 50% 30.42 in 10.0 mi NNE 15.0 mph - N/A   Mostly Cloudy
8:58 AM 33.8 °F 22.5 °F 17.1 °F 50% 30.45 in 10.0 mi North 19.6 mph 24.2 mph N/A   Mostly Cloudy
9:58 AM 35.6 °F 26.2 °F 19.0 °F 51% 30.47 in 10.0 mi NNE 15.0 mph 24.2 mph N/A   Overcast
10:58 AM 38.5 °F 29.9 °F 20.1 °F 48% 30.48 in 10.0 mi North 15.0 mph - N/A   Partly Cloudy
11:58 AM 41.2 °F 32.7 °F 19.0 °F 41% 30.46 in 10.0 mi NNE 17.3 mph 21.9 mph N/A   Partly Cloudy
12:58 PM 43.5 °F 36.1 °F 20.1 °F 39% 30.42 in 10.0 mi NNE 16.1 mph 21.9 mph N/A   Clear
1:47 PM 46.4 °F 39.8 °F 19.4 °F 34% 30.38 in 10.0 mi NE 16.1 mph 24.2 mph N/A   Clear
1:58 PM 45.9 °F 39.1 °F 20.3 °F 36% 30.38 in 10.0 mi NNE 16.1 mph 23.0 mph N/A   Partly Cloudy
2:58 PM 47.5 °F - 17.8 °F 31% 30.34 in 10.0 mi NNE 16.1 mph 20.7 mph N/A   Clear
3:54 PM 50.0 °F - 17.6 °F 28% 30.30 in 10.0 mi ENE 12.7 mph - N/A   Clear
3:58 PM 49.5 °F - 17.6 °F 28% 30.31 in 10.0 mi ENE 10.4 mph - N/A   Clear
4:58 PM 50.4 °F - 18.5 °F 28% 30.30 in 10.0 mi NE 10.4 mph - N/A   Clear
5:58 PM 49.6 °F - 18.1 °F 29% 30.27 in 10.0 mi NE 10.4 mph - N/A   Clear
6:58 PM 48.6 °F - 18.9 °F 31% 30.28 in 10.0 mi NE 5.8 mph - N/A   Clear
7:58 PM 45.5 °F 41.8 °F 20.5 °F 37% 30.27 in 10.0 mi NNE 6.9 mph - N/A   Clear
8:58 PM 39.9 °F 35.1 °F 23.2 °F 51% 30.27 in 10.0 mi NNE 6.9 mph - N/A   Clear
9:58 PM 40.5 °F 36.5 °F 23.0 °F 50% 30.28 in 10.0 mi NNE 5.8 mph - N/A   Clear
10:58 PM 39.4 °F 36.1 °F 24.6 °F 56% 30.29 in 10.0 mi North 4.6 mph - N/A   Clear
11:58 PM 36.5 °F 31.8 °F 24.3 °F 61% 30.27 in 10.0 mi North 5.8 mph - N/A   Clear